When you browse on this site, cookies collect data to enhance your experience and personalize the content and advertising you see.
Visit our Privacy Policy to learn more. By continuing to use the site, you agree to this use of cookies and data.
  • In United Kingdom
  • List of Countries
  • For 7 days
  • Water Temperature
  • Satellite Maps
  • Weather Map
  • Weather Widgets
  • user-avatar
    Login

    Hourly Weather Varadero

    Today, 20 April, Saturday

    Time Temperature Precipitation Wind Pressure Humidity
    00:00 +27°C° 0.1 mm 4 mps 760 mmHg 78%
    01:00 +27°C° 0.1 mm 4 mps 760 mmHg 81%
    02:00 +26°C° 0.2 mm 4 mps 760 mmHg 82%
    03:00 +26°C° 0.2 mm 4 mps 760 mmHg 83%
    04:00 +26°C° 0.2 mm 4 mps 760 mmHg 84%
    05:00 +26°C° 0.1 mm 3 mps 760 mmHg 82%
    06:00 +26°C° 0.1 mm 3 mps 761 mmHg 79%
    07:00 +26°C° 0.1 mm 3 mps 761 mmHg 77%
    08:00 +27°C° 0 mm 4 mps 761 mmHg 70%
    09:00 +28°C° 0 mm 4 mps 762 mmHg 64%
    10:00 +29°C° 0 mm 5 mps 762 mmHg 58%
    11:00 +29°C° 0 mm 5 mps 762 mmHg 58%
    12:00 +29°C° 0 mm 5 mps 762 mmHg 58%
    13:00 +28°C° 0 mm 5 mps 762 mmHg 58%
    14:00 +28°C° 0 mm 6 mps 762 mmHg 58%
    15:00 +28°C° 0 mm 6 mps 761 mmHg 58%
    16:00 +27°C° 0 mm 6 mps 761 mmHg 58%
    17:00 +27°C° 0 mm 6 mps 761 mmHg 60%
    18:00 +26°C° 0 mm 5 mps 762 mmHg 61%
    19:00 +25°C° 0 mm 5 mps 762 mmHg 63%
    20:00 +25°C° 0 mm 5 mps 762 mmHg 62%
    21:00 +25°C° 0 mm 4 mps 763 mmHg 62%
    22:00 +23°C° 0 mm 4 mps 763 mmHg 61%
    23:00 +23°C° 0 mm 4 mps 763 mmHg 61%

    Tomorrow, 21 April, Sunday

    Time Temperature Precipitation Wind Pressure Humidity
    00:00 +23°C° 0 mm 4 mps 763 mmHg 62%
    01:00 +22°C° 0 mm 4 mps 763 mmHg 62%
    02:00 +22°C° 0 mm 4 mps 763 mmHg 64%
    03:00 +22°C° 0 mm 4 mps 763 mmHg 66%
    04:00 +22°C° 0 mm 4 mps 763 mmHg 68%
    05:00 +23°C° 0 mm 4 mps 763 mmHg 67%
    06:00 +23°C° 0 mm 4 mps 763 mmHg 66%
    07:00 +23°C° 0 mm 4 mps 764 mmHg 64%
    08:00 +26°C° 0 mm 4 mps 764 mmHg 58%
    09:00 +27°C° 0 mm 4 mps 764 mmHg 52%
    10:00 +28°C° 0 mm 4 mps 765 mmHg 46%
    11:00 +29°C° 0 mm 4 mps 765 mmHg 44%
    12:00 +29°C° 0 mm 4 mps 764 mmHg 42%
    13:00 +30°C° 0 mm 4 mps 764 mmHg 40%
    14:00 +29°C° 0 mm 5 mps 764 mmHg 43%
    15:00 +29°C° 0 mm 5 mps 763 mmHg 45%
    16:00 +28°C° 0 mm 5 mps 763 mmHg 47%
    17:00 +27°C° 0 mm 5 mps 763 mmHg 51%
    18:00 +26°C° 0 mm 5 mps 763 mmHg 55%
    19:00 +25°C° 0 mm 5 mps 763 mmHg 58%
    20:00 +25°C° 0 mm 5 mps 764 mmHg 59%
    21:00 +23°C° 0 mm 5 mps 764 mmHg 59%
    22:00 +23°C° 0 mm 4 mps 765 mmHg 60%
    23:00 +23°C° 0 mm 4 mps 765 mmHg 59%

    Day after tomorrow, 22 April, Monday

    Time Temperature Precipitation Wind Pressure Humidity
    00:00 +23°C° 0 mm 4 mps 764 mmHg 59%
    01:00 +23°C° 0 mm 4 mps 764 mmHg 59%
    02:00 +23°C° 0 mm 5 mps 764 mmHg 60%
    03:00 +23°C° 0 mm 5 mps 763 mmHg 62%
    04:00 +23°C° 0 mm 5 mps 763 mmHg 63%
    05:00 +23°C° 0 mm 5 mps 763 mmHg 63%
    06:00 +23°C° 0 mm 5 mps 763 mmHg 63%
    07:00 +25°C° 0 mm 5 mps 763 mmHg 63%
    08:00 +26°C° 0 mm 5 mps 764 mmHg 58%
    09:00 +28°C° 0 mm 6 mps 764 mmHg 54%
    10:00 +29°C° 0 mm 6 mps 764 mmHg 49%
    11:00 +30°C° 0 mm 6 mps 764 mmHg 47%
    12:00 +30°C° 0 mm 6 mps 764 mmHg 45%
    13:00 +32°C° 0 mm 6 mps 763 mmHg 43%
    14:00 +30°C° 0 mm 6 mps 763 mmHg 44%
    15:00 +30°C° 0 mm 6 mps 762 mmHg 45%
    16:00 +29°C° 0 mm 6 mps 761 mmHg 46%
    17:00 +28°C° 0 mm 6 mps 762 mmHg 52%
    18:00 +27°C° 0 mm 6 mps 762 mmHg 57%
    19:00 +26°C° 0 mm 6 mps 762 mmHg 63%
    20:00 +24°C° 0 mm 6 mps 763 mmHg 64%
    21:00 +24°C° 0 mm 6 mps 763 mmHg 66%
    22:00 +24°C° 0 mm 6 mps 763 mmHg 68%
    23:00 +23°C° 0 mm 6 mps 763 mmHg 69%

    23 April, Tuesday

    Time Temperature Precipitation Wind Pressure Humidity
    00:00 +23°C° 0 mm 5 mps 763 mmHg 71%
    01:00 +23°C° 0 mm 5 mps 762 mmHg 73%
    02:00 +23°C° 0 mm 5 mps 762 mmHg 74%
    03:00 +23°C° 0 mm 5 mps 762 mmHg 75%
    04:00 +23°C° 0 mm 5 mps 761 mmHg 76%
    05:00 +23°C° 0 mm 5 mps 762 mmHg 75%
    06:00 +25°C° 0 mm 5 mps 762 mmHg 75%
    07:00 +25°C° 0 mm 5 mps 762 mmHg 74%
    08:00 +27°C° 0 mm 5 mps 763 mmHg 67%
    09:00 +28°C° 0 mm 6 mps 763 mmHg 60%
    10:00 +30°C° 0 mm 6 mps 763 mmHg 54%
    11:00 +30°C° 0 mm 6 mps 763 mmHg 53%
    12:00 +30°C° 0 mm 6 mps 762 mmHg 53%
    13:00 +30°C° 0 mm 6 mps 762 mmHg 53%
    14:00 +30°C° 0 mm 6 mps 761 mmHg 54%
    15:00 +29°C° 0 mm 7 mps 761 mmHg 55%
    16:00 +29°C° 0 mm 7 mps 760 mmHg 56%
    17:00 +28°C° 0 mm 6 mps 761 mmHg 61%
    18:00 +27°C° 0 mm 6 mps 761 mmHg 65%
    19:00 +26°C° 0 mm 6 mps 761 mmHg 69%
    20:00 +26°C° 0 mm 6 mps 762 mmHg 71%
    21:00 +26°C° 0 mm 5 mps 762 mmHg 72%
    22:00 +26°C° 0 mm 5 mps 762 mmHg 74%
    23:00 +26°C° 0 mm 5 mps 762 mmHg 76%

    24 April, Wednesday

    Time Temperature Precipitation Wind Pressure Humidity
    00:00 +25°C° 0 mm 5 mps 762 mmHg 78%
    01:00 +25°C° 0 mm 5 mps 761 mmHg 79%
    02:00 +25°C° 0.1 mm 5 mps 761 mmHg 81%
    03:00 +25°C° 0.1 mm 5 mps 761 mmHg 82%
    04:00 +25°C° 0.1 mm 5 mps 760 mmHg 84%
    05:00 +25°C° 0.1 mm 5 mps 761 mmHg 82%
    06:00 +26°C° 0.1 mm 5 mps 761 mmHg 80%
    07:00 +26°C° 0.1 mm 5 mps 761 mmHg 78%
    08:00 +28°C° 0 mm 5 mps 762 mmHg 70%
    09:00 +29°C° 0 mm 5 mps 762 mmHg 62%
    10:00 +32°C° 0 mm 6 mps 762 mmHg 54%
    11:00 +33°C° 0 mm 6 mps 761 mmHg 52%
    12:00 +33°C° 0 mm 6 mps 761 mmHg 51%
    13:00 +34°C° 0 mm 7 mps 761 mmHg 49%
    14:00 +33°C° 0.1 mm 7 mps 760 mmHg 52%
    15:00 +32°C° 0.1 mm 7 mps 760 mmHg 55%
    16:00 +32°C° 0.1 mm 7 mps 760 mmHg 58%
    17:00 +30°C° 0.1 mm 7 mps 760 mmHg 63%
    18:00 +28°C° 0.1 mm 7 mps 760 mmHg 68%
    19:00 +27°C° 0.1 mm 6 mps 760 mmHg 73%
    20:00 +27°C° 0.1 mm 6 mps 761 mmHg 74%
    21:00 +27°C° 0.1 mm 6 mps 761 mmHg 75%
    22:00 +27°C° 0.1 mm 5 mps 761 mmHg 77%
    23:00 +26°C° 0 mm 5 mps 761 mmHg 78%

    25 April, Thursday

    Time Temperature Precipitation Wind Pressure Humidity
    00:00 +26°C° 0 mm 5 mps 761 mmHg 79%
    01:00 +26°C° 0 mm 5 mps 760 mmHg 81%
    02:00 +26°C° 0 mm 5 mps 760 mmHg 82%
    03:00 +25°C° 0 mm 4 mps 760 mmHg 84%
    04:00 +25°C° 0 mm 4 mps 760 mmHg 85%
    05:00 +25°C° 0 mm 4 mps 760 mmHg 83%
    06:00 +26°C° 0 mm 4 mps 760 mmHg 82%
    07:00 +26°C° 0 mm 5 mps 761 mmHg 80%
    08:00 +28°C° 0 mm 4 mps 761 mmHg 69%
    09:00 +30°C° 0 mm 4 mps 761 mmHg 59%
    10:00 +33°C° 0 mm 4 mps 761 mmHg 48%
    11:00 +34°C° 0 mm 4 mps 761 mmHg 45%
    12:00 +35°C° 0 mm 4 mps 761 mmHg 43%
    13:00 +35°C° 0 mm 4 mps 760 mmHg 40%
    14:00 +34°C° 0 mm 5 mps 760 mmHg 47%
    15:00 +33°C° 0 mm 5 mps 760 mmHg 54%
    16:00 +32°C° 0 mm 5 mps 759 mmHg 61%
    17:00 +30°C° 0.2 mm 5 mps 760 mmHg 65%
    18:00 +29°C° 0.2 mm 5 mps 760 mmHg 68%
    19:00 +28°C° 0.2 mm 4 mps 760 mmHg 72%
    20:00 +28°C° 0.4 mm 4 mps 760 mmHg 73%
    21:00 +27°C° 0.4 mm 4 mps 761 mmHg 74%
    22:00 +27°C° 0.4 mm 3 mps 761 mmHg 75%
    23:00 +27°C° 0.1 mm 3 mps 761 mmHg 77%
    Show more